Le nostre stazioni meteo in Italia

Pubblicità
Il mio iltempo24.it
Firenze/Peretola, Italia (16170): Temperatura & dewpoint: 09.11.2018 08:00:00 - 15.11.2018 08:00:00 (CET)Firenze/Peretola, Italia (16170): velocità del vento: 09.11.2018 08:00:00 - 15.11.2018 08:00:00 (CET)Firenze/Peretola, Italia (16170): direzione del vento: 09.11.2018 08:00:00 - 15.11.2018 08:00:00 (CET)Firenze/Peretola, Italia (16170): reduced air pressure: 09.11.2018 08:00:00 - 15.11.2018 08:00:00 (CET)Firenze/Peretola, Italia (16170): visibility: 09.11.2018 08:00:00 - 15.11.2018 08:00:00 (CET)Firenze/Peretola, Italia (16170): precipitazioni: 09.11.2018 08:00:00 - 15.11.2018 08:00:00 (CET)
Data & Tempo tt [°C] td [°C] ff [km/h] ff [kn] dd ppp [hPa] vv [km] rr [mm]
15.11.2018 08:00:00 8,0 7,0 5 3 S - 10 -
15.11.2018 07:00:00 7,9 6,9 4 2 N 1024,7 20 -
15.11.2018 06:00:00 8,0 7,0 8 4 SSO - 10 -
15.11.2018 05:00:00 9,0 8,0 4 2 - - 10 -
15.11.2018 04:00:00 8,6 7,4 5 3 S 1024,5 10 0,0
15.11.2018 03:00:00 9,0 8,0 4 2 - - 10 -
15.11.2018 02:00:00 10,0 9,0 4 2 - - 10 -
15.11.2018 01:00:00 10,8 8,7 8 4 S 1025,2 10 -
15.11.2018 00:00:00 11,0 9,0 8 4 SSO - 10 -
14.11.2018 23:00:00 14,0 9,0 8 4 NO - 10 -
14.11.2018 22:00:00 15,0 9,4 4 2 - 1026,0 10 0,0
14.11.2018 21:00:00 14,0 9,0 4 2 - - 10 -
14.11.2018 20:00:00 15,0 10,0 8 4 N - 10 -
14.11.2018 19:00:00 14,5 9,6 8 4 N 1026,0 10 -
14.11.2018 18:00:00 16,0 10,0 4 2 - - 10 -
14.11.2018 17:00:00 17,0 10,0 11 6 NNE - 10 -
14.11.2018 16:00:00 17,2 10,1 13 7 NNE 1025,9 10 0,0
14.11.2018 15:00:00 18,0 13,0 5 3 SSO - 10 -
14.11.2018 14:00:00 17,0 13,0 5 3 SSO - 10 -
14.11.2018 13:00:00 15,6 12,2 4 2 - 1027,3 8 -
14.11.2018 12:00:00 14,0 12,0 2 1 - - 8 -
14.11.2018 11:00:00 13,0 12,0 2 1 - - 5 -
14.11.2018 10:00:00 12,0 11,6 2 1 - 1028,8 5 0,0
14.11.2018 09:00:00 12,0 11,0 2 1 - - 5 -
14.11.2018 08:00:00 11,0 11,0 2 1 - - 5 -
14.11.2018 07:00:00 11,2 11,1 2 1 - 1028,1 0,5 -
14.11.2018 06:00:00 11,0 11,0 2 1 - - 0,5 -
14.11.2018 05:00:00 11,0 11,0 4 2 - - 0,1 -
14.11.2018 04:00:00 11,4 11,2 2 1 - 1028,3 0,2 0,0
14.11.2018 03:00:00 11,0 10,0 2 1 - - 4,0 -
14.11.2018 02:00:00 9,0 9,0 0 0 N - 4,0 -
14.11.2018 01:00:00 11,1 10,8 4 2 NNE 1028,6 4,5 -
14.11.2018 00:00:00 11,0 11,0 2 1 - - 6 -
13.11.2018 23:00:00 12,0 12,0 4 2 - - 6 -
13.11.2018 22:00:00 12,0 11,7 4 2 - 1029,1 5 0,0
13.11.2018 21:00:00 12,0 12,0 5 3 E - 5 -
13.11.2018 20:00:00 11,0 11,0 2 1 - - 4,0 -
13.11.2018 19:00:00 12,0 11,7 0 0 NO 1028,6 4,0 -
13.11.2018 18:00:00 12,0 12,0 2 1 S - 5 -
13.11.2018 17:00:00 14,0 12,0 4 2 ONO - 6 -
13.11.2018 16:00:00 15,4 12,5 4 2 - 1028,1 8 0,0
13.11.2018 15:00:00 16,0 13,0 8 4 ONO - 10 -
13.11.2018 14:00:00 15,0 13,0 8 4 NNO - 8 -
13.11.2018 13:00:00 14,1 13,0 5 3 NO 1028,9 8 -
13.11.2018 12:00:00 12,0 12,0 4 2 - - 6 -
13.11.2018 11:00:00 11,0 11,0 4 2 - - 0,5 -
13.11.2018 10:00:00 10,4 10,3 4 2 - 1029,8 0,3 0,0
13.11.2018 09:00:00 11,0 11,0 5 3 ONO - 0,3 -
13.11.2018 08:00:00 11,0 10,0 4 2 O - 0,2 -
13.11.2018 07:00:00 10,5 10,4 2 1 - 1028,5 0,2 -
13.11.2018 06:00:00 11,0 10,0 2 1 - - 0,1 -
13.11.2018 05:00:00 11,0 11,0 2 1 - - 0,1 -
13.11.2018 04:00:00 10,8 10,7 4 2 - 1028,1 0,1 0,0
13.11.2018 03:00:00 11,0 11,0 2 1 - - 0,8 -
13.11.2018 02:00:00 11,0 11,0 2 1 - - 5 -
13.11.2018 01:00:00 10,4 10,3 2 1 E 1027,9 6 -
13.11.2018 00:00:00 9,0 9,0 2 1 E - 7 -
12.11.2018 23:00:00 10,0 10,0 2 1 NE - 10 -
12.11.2018 22:00:00 11,2 11,0 4 2 ESE 1027,6 10 0,0
12.11.2018 21:00:00 11,0 11,0 2 1 - - 7 -
12.11.2018 20:00:00 12,0 12,0 4 2 - - 6 -
12.11.2018 19:00:00 13,0 12,7 2 1 - 1026,9 6 -
12.11.2018 18:00:00 15,0 14,0 4 2 O - 7 -
12.11.2018 17:00:00 16,0 14,0 2 1 - - 6 -
12.11.2018 16:00:00 17,1 14,4 5 3 OSO 1026,4 8 0,0
12.11.2018 15:00:00 18,0 14,0 5 3 NO - 10 -
12.11.2018 14:00:00 18,0 13,0 5 3 NNO - 10 -
12.11.2018 13:00:00 15,6 13,4 4 2 - 1026,8 8 -
12.11.2018 12:00:00 14,0 14,0 4 2 - - 8 -
12.11.2018 11:00:00 12,0 12,0 2 1 - - 0,7 -
12.11.2018 10:00:00 11,9 11,8 2 1 - 1027,3 0,2 0,0
12.11.2018 09:00:00 11,0 11,0 2 1 - - 0,2 -
12.11.2018 08:00:00 11,0 11,0 4 2 - - 7 -
12.11.2018 07:00:00 11,0 10,9 2 1 N 1026,2 6 -
12.11.2018 06:00:00 11,0 11,0 2 1 - - 4,5 -
12.11.2018 05:00:00 11,0 11,0 5 3 S - 0,1 -
12.11.2018 04:00:00 12,0 11,9 5 3 SE 1025,4 0,1 0,0
12.11.2018 03:00:00 13,0 12,0 4 2 - - 0,1 -
12.11.2018 02:00:00 13,0 13,0 2 1 - - 0,1 -
12.11.2018 01:00:00 12,8 12,6 2 1 - 1024,8 0,5 -
12.11.2018 00:00:00 12,0 12,0 4 2 SSE - 4,5 -
11.11.2018 23:00:00 12,0 12,0 2 1 SSO - 0,8 -
11.11.2018 22:00:00 12,9 12,5 2 1 - 1024,2 6 0,0
11.11.2018 21:00:00 15,0 14,0 4 2 - - 7 -
11.11.2018 20:00:00 15,0 14,0 0 0 N - 7 -
11.11.2018 19:00:00 14,6 13,9 4 2 NE 1023,3 6 -
11.11.2018 18:00:00 15,0 14,0 4 2 - - 7 -
11.11.2018 17:00:00 15,0 14,0 5 3 S - 7 -
11.11.2018 16:00:00 15,3 14,0 4 2 - 1022,2 7 0,0
11.11.2018 15:00:00 15,0 14,0 2 1 - - 8 -
11.11.2018 14:00:00 14,0 13,0 2 1 - - 7 -
11.11.2018 13:00:00 13,7 12,8 2 1 - 1021,8 4,0 -
11.11.2018 12:00:00 13,0 13,0 2 1 - - 2,5 -
11.11.2018 11:00:00 13,0 12,0 5 3 OSO - 2,8 -
11.11.2018 10:00:00 12,3 11,9 8 4 E 1020,8 2,0 0,0
11.11.2018 09:00:00 12,0 11,0 4 2 - - 1,8 -
11.11.2018 08:00:00 12,0 11,0 2 1 - - 7 -
11.11.2018 07:00:00 11,5 10,9 2 1 N 1019,1 10 -
11.11.2018 06:00:00 11,0 11,0 4 2 - - 10 -
11.11.2018 05:00:00 11,0 10,0 5 3 - - 10 -
11.11.2018 04:00:00 10,0 10,0 2 1 - - 10 -
11.11.2018 03:00:00 10,0 9,0 2 1 SSE - 10 -
11.11.2018 02:00:00 11,0 10,0 2 1 - - 10 -
11.11.2018 01:00:00 10,7 10,0 5 3 ESE 1017,7 10 -
11.11.2018 00:00:00 12,0 11,0 2 1 - - 10 -
10.11.2018 23:00:00 12,0 11,0 8 4 ESE - 10 -
10.11.2018 22:00:00 11,1 10,2 0 0 N 1017,3 20 0,0
10.11.2018 21:00:00 13,0 11,0 9 5 ESE - 10 -
10.11.2018 20:00:00 15,0 12,0 9 5 ESE - 10 -
10.11.2018 19:00:00 14,3 11,6 5 3 E 1016,2 2,0 -
10.11.2018 18:00:00 15,0 12,0 0 0 N - 10 -
10.11.2018 17:00:00 18,0 11,0 4 2 ONO - 10 -
10.11.2018 16:00:00 19,5 11,0 8 4 ONO 1015,1 10 0,0
10.11.2018 15:00:00 20,0 11,0 5 3 - - 10 -
10.11.2018 14:00:00 20,0 11,0 4 2 - - 10 -
10.11.2018 13:00:00 19,1 11,2 4 2 - 1016,0 10 -
10.11.2018 12:00:00 17,0 11,0 4 2 - - 10 -
10.11.2018 11:00:00 13,0 11,0 2 1 - - 10 -
10.11.2018 10:00:00 12,8 10,5 2 1 - 1017,8 10 0,0
10.11.2018 09:00:00 11,0 10,0 2 1 - - 10 -
10.11.2018 08:00:00 8,0 8,0 2 1 SSE - 10 -
10.11.2018 07:00:00 9,1 9,0 4 2 E 1017,2 10 -
10.11.2018 06:00:00 9,0 8,0 4 2 NO - 10 -
10.11.2018 05:00:00 10,0 10,0 4 2 S - 10 -
10.11.2018 04:00:00 7,7 7,5 4 2 NNO 1017,3 10 0,0
10.11.2018 03:00:00 - - - - - - - -
10.11.2018 02:00:00 11,0 10,0 2 1 - - 10 -
10.11.2018 01:00:00 11,6 10,9 4 2 ESE 1018,1 10 -
10.11.2018 00:00:00 11,0 10,0 2 1 - - 10 -
09.11.2018 23:00:00 10,0 10,0 2 1 - - 10 -
09.11.2018 22:00:00 11,2 10,4 5 3 NE 1018,5 10 0,0
09.11.2018 21:00:00 12,0 11,0 4 2 OSO - 10 -
09.11.2018 20:00:00 13,0 11,0 2 1 - - 10 -
09.11.2018 19:00:00 13,8 10,5 8 4 E 1017,8 10 -
09.11.2018 18:00:00 16,0 12,0 8 4 ENE - 10 -
09.11.2018 17:00:00 18,0 11,0 2 1 E - 10 -
09.11.2018 16:00:00 19,5 10,6 5 3 SE 1017,5 10 0,0
09.11.2018 15:00:00 20,0 11,0 8 4 ESE - 10 -
09.11.2018 14:00:00 19,0 11,0 5 3 ESE - 10 -
09.11.2018 13:00:00 19,0 10,8 9 5 SSE 1018,4 10 -
09.11.2018 12:00:00 18,0 10,0 5 3 OSO - 10 -
09.11.2018 11:00:00 15,0 11,0 4 2 - - 10 -
09.11.2018 10:00:00 13,4 10,8 4 2 - 1020,3 10 0,0
09.11.2018 09:00:00 12,0 10,0 2 1 - - 10 -
09.11.2018 08:00:00 10,0 9,0 4 2 - - 10 -

tt = Temperatura
td = dewpoint
ff = velocità del vento
dd = direzione del vento
ppp = reduced air pressure
vv = visibility
rr = precipitazioni

Stazioni seguenti

WeatherPro
AMSI
MeteoEarth